Retour au catalogue

ONEWEB-0356

ActifCommunicationsPO
NORAD 49283·PAYLOAD·🇬🇧 United Kingdom

Lancé Oct 14, 2021 depuis Vostochny Cosmodrome

Loading…

Prochains Passages (prochaines 24 heures)

TLE

FraisSource: CelesTrak SupGP

Époque: Sep 14, 2026, 20:43 UTC

1 49283C 21090E   26257.86334907  .00003627  00000+0  89324-2 0  2572
2 49283  87.9140 256.5462 0002774  97.9842 341.8565 13.20767730    15

Suivez ONEWEB-0356 en temps réel avec AllMySat

Download on the App Store